Погода в Ясном

Россия / Приморский край     43°41′15″N   133°57′29″E
темп.,
°C
ветер,
м/с
пор.,
м/с
влажн.,
%
обл.,
%
осадки,
мм/ч
давл.,
гПа
погр.,
м
25 февраля, чт
чт2501:00−22ююз119314 0.0 102620
04:00−21ююв119227 0.0 102520
07:00−17ю119154 0.0 102420
10:00−10юз129352 0.0 1023224
13:00−6зсз588549 0.2 10231301
16:00−7зсз698674 0.7 10211362
19:00−12сз3996100 0.4 1023561
22:00−15ссз2298100 0.8 102453
26 февраля, пт
пт2601:00−17зсз2398100 0.3 102691
04:00−17сз31198100 0.6 1027685
07:00−20сз22100100 0.2 102875
10:00−17сз3994100 0.3 1028680
13:00−13сз5987100 0.1 10291039
16:00−12сз6138479 0.1 10271336
19:00−17ссз399664 0.0 1030403
22:00−21сз1210082 0.1 103231
27 февраля, сб
сб2701:00−23сз12100100 0.1 103422
04:00−24ссз1110097 0.1 103520
07:00−25св119853 0.0 103620
10:00−13вюв018528 0.0 103682
13:00−4ю23743 0.0 1034507
16:00−3ю247911 0.0 1031611
19:00−10ююв33850 0.0 103138
22:00−14ююв33850 0.0 103149
28 февраля, вс
вс2801:00−13ююв338967 0.0 103055
04:00−12ю239578 0.0 102854
07:00−7ююз499591 0.0 1028277
10:00−1юз4148895 0.0 1027786
13:00+1юз31197100 0.0 10251107
16:000юз2898100 0.0 1024738
19:00−3ююз2394100 0.0 102546
22:00−5юз1296100 0.0 102530
1 марта, пн
пн101:00−5ссз2498100 0.4 1025206
04:00−9сз2498100 0.8 1027147
07:00−12ссз2398100 0.2 102998
10:00−11ссз3793100 0.4 1031752
13:00−11ссз3688100 0.1 1031798
16:00−12ссз3687100 0.1 1031734
19:00−15сз1295100 0.0 103142
22:00−17сз1198100 0.0 103232